Regional Weather Roundup
Issued by NWS Newport/Morehead, NC

Current Version | Previous Version | Text Only | Print | Product List | Glossary Off
Versions: 1 2 3 4 5 6 7 8 9 10 11 12 13 14 15 16 17 18 19 20 21 22 23 24 25 26 27 28 29 30 31 32 33 34 35 36 37 38 39 40 41 42 43 44 45 46 47 48 49 50
670 ASUS42 KMHX 290925 RWRMHX WEATHER ROUNDUP FOR EASTERN NORTH CAROLINA NATIONAL WEATHER SERVICE NEWPORT/MOREHEAD CITY NC 500 AM EDT SUN MAY 29 2016 NOTE: "FAIR" INDICATES FEW OR NO CLOUDS BELOW 12,000 FEET WITH NO SIGNIFICANT WEATHER AND/OR OBSTRUCTIONS TO VISIBILITY NCZ015>017-031-032-045>047-102-103-291000- NORTH COAST CITY SKY/WX TMP DP RH WIND PRES REMARKS EDENTON LGT RAIN N/A N/A N/A E3 30.11S ELIZABETH CITY CLEAR 70 69 97 E5 30.11S KITTY HAWK MOSUNNY 70 70 100 E3 30.09F MANTEO NOT AVBL $$ NCZ045>047-081-094-103-104-291000- CENTRAL COAST CITY SKY/WX TMP DP RH WIND PRES REMARKS FRISCO PTCLDY 75 72 90 SE8 30.08F $$ NCZ095-097-098-100-101-291000- SOUTHERN COAST CITY SKY/WX TMP DP RH WIND PRES REMARKS BEAUFORT LGT RAIN 74 72 93 E7 30.05F CEDAR ISLAND NOT AVBL JACKSONVILLE LGT RAIN 74 71 91 E9 30.04S PINEY ISLAND NOT AVBL WILMINGTON CLOUDY 73 71 93 E6 30.02S $$ NCZ011>013-027>030-043-044-078>080-089-090>093-098-291000- COASTAL PLAIN CITY SKY/WX TMP DP RH WIND PRES REMARKS AHOSKIE FOG 65 65 97 CALM 30.11S VSB 1 CLINTON LGT RAIN 72 72 100 NE3 30.06S ELIZABETHTOWN LGT RAIN 71 71 100 CALM 30.04F GOLDSBORO PTCLDY 71 71 100 NE7 30.05F GREENVILLE CLOUDY 70 70 100 E5 30.11R HAVELOCK PTCLDY 72 70 93 NE3 30.07S KENANSVILLE CLOUDY 71 70 97 CALM 30.07S KINSTON CLOUDY 72 71 96 NE5 30.08S NEW BERN CLOUDY 72 71 97 NE5 30.08R RICHLANDS LGT RAIN 72 71 97 NE6 30.05F FOG ROCKY MOUNT MOCLDY 68 67 96 N5 30.10S WASHINGTON CLOUDY 69 68 98 NE5 30.08S WHITEVILLE HVY RAIN 72 70 95 NE7 30.01F $$ AMZ130-135-150-152-154-156-158-170-250-252-270-ANZ085-086-088-633-658-670-291000- MARINE OBSERVATIONS STATION/POSITION TIME TEMP WIND PRES WAVE SWELL AIR SEA DIR/SP/G HT/PER HT/PER (UTC) (F) (DEG/KT/KT) (MB) (FT/S) (FT/S) CHESAPEAKE LIGHT 0900 70 110/ 11/ 11 1020.8 64 E VA BEACH 0850 68 64 90/ 4/ 6 1020.0 4/ 8 3/ 8 DUCK 0900 68 61 100/ 5/ 6 1018.9 2 E DUCK 0811 67 N/A 2/ 7 OREGON INLET 0900 71 74 90/ 5/ 6 1019.1 13E OREGON INLT 0900 71 N/A 3/ 6 3/ 6 HATTERAS CG 0900 76 76 120/ 6/ 9 1018.2 DIAMOND BUOY 0850 78 79 130/ 14/ 17 1018.2 4/ 8 2/ 8 CAPE LOOKOUT 0900 73 110/ 15/ 17 1017.4 BEAUFORT LAB 0900 74 74 110/ 8/ 12 1016.8 30 SE NEW RVR IN 0825 75 N/A 5/ 7 27 SE WRIGHTSVLE 0908 77 75 140/ 12/ 17 1015.6 5 SE WRIGHTSVLE 0808 74 74 100/ 16/ 23 1017.0 225 S CAPE HAT 0850 75 75 120/ 14/ 16 1018.2 4/ 7 3/ 7 41 SE CHARLESTON 0850 76 78 110/ 23/ 29 1010.4 7/ 8 $$

USA.gov is the U.S. government's official web portal to all federal, state and local government web resources and services.